Nome, AK

10:38 PM AKST on January 19, 2018 (GMT -0900)
Nome

Weather History for PAOM - January, 2014

Change the Weather History Date:

Sunday, January 19, 2014

  Actual Average Record
Temperature  
Mean Temperature 23 °F 5 °F  
Max Temperature 28 °F 13 °F 42 °F (1940)
Min Temperature 18 °F -3 °F -38 °F (1989)
Degree Days  
Heating Degree Days 42 60  
Month to date heating degree days 965 1133  
Since 1 July heating degree days 6327 6946  
Cooling Degree Days 0 0  
Month to date cooling degree days 0 0  
Year to date cooling degree days 0 0  
Moisture  
Dew Point 22 °F    
Average Humidity 0    
Maximum Humidity 0    
Minimum Humidity 0    
Precipitation  
Precipitation T in 0.03 in 0.60 in (1922)
Month to date precipitation 0.68 0.59  
Year to date precipitation 0.68 0.59  
Snow  
Snow T in 0.40 in 6.00 in (1921)
Month to date snowfall 9.1 8.0  
Since 1 July snowfall 42.1 39.8  
Snow Depth 21.00 in    
Sea Level Pressure  
Sea Level Pressure 29.52 in    
Wind  
Wind Speed 12 mph (ESE)    
Max Wind Speed 20 mph    
Max Gust Speed 23 mph    
Visibility 9 miles    
Events Snow    
T = Trace of Precipitation, MM = Missing Value Source: NWS Daily Summary

Daily Weather History Graph

Daily Weather History Graph

Search for Another Location

Airport or City:

Trip Planner

Search our weather history database for the weather conditions in past years. The results will help you decide how hot, cold, wet, or windy it might be!

Date:

Astronomy

Jan. 19, 2014 Rise Set
Actual Time 11:22 AM AKST 5:03 PM AKST
Civil Twilight 10:16 AM AKST 6:09 PM AKST
Nautical Twilight 9:12 AM AKST 7:13 PM AKST
Astronomical Twilight 8:14 AM AKST 8:11 PM AKST
Moon 10:43 PM AKST (1/19) 11:17 AM AKST (1/19)
Length of Visible Light 7h 53m
Length of Day
5h 41m
Waning Gibbous, 88% of the Moon is Illuminated
Jan 19
Waning Gibbous
Jan 23
Last Quarter
Jan 30
New
Feb 6
First Quarter
Feb 14
Full

Hourly Weather History & Observations

Time (AKST) Temp. Windchill Dew Point Humidity Pressure Visibility Wind Dir Wind Speed Gust Speed Precip Events Conditions
12:06 AM 24.8 °F 13.4 °F 24.8 °F 100% 29.27 in 10.0 mi ESE 12.7 mph - N/A   Overcast
12:40 AM 26.6 °F 14.7 °F 24.8 °F 93% 29.29 in 7.0 mi ESE 15.0 mph - 0.00 in Snow Light Snow
12:53 AM 26.1 °F 14.0 °F 25.0 °F 96% 29.30 in 4.0 mi ESE 15.0 mph - 0.00 in Snow Light Snow
1:45 AM 26.6 °F 15.2 °F 24.8 °F 93% 29.32 in 5.0 mi SE 13.8 mph - 0.00 in Snow Light Snow
1:53 AM 26.1 °F 14.5 °F 25.0 °F 96% 29.33 in 4.0 mi SE 13.8 mph - 0.00 in Snow Light Snow
2:53 AM 26.1 °F 13.1 °F 25.0 °F 96% 29.36 in 6.0 mi SSE 17.3 mph - 0.00 in Snow Blowing Snow
3:26 AM 24.8 °F 12.9 °F 24.8 °F 100% 29.38 in 6.0 mi SSE 13.8 mph - 0.00 in Snow Blowing Snow
3:53 AM 25.0 °F 12.2 °F 24.1 °F 96% 29.39 in 4.0 mi SSE 16.1 mph - 0.00 in Snow Light Snow
4:30 AM 24.8 °F 13.4 °F 24.8 °F 100% 29.41 in 7.0 mi SSE 12.7 mph - 0.00 in Snow Blowing Snow
4:51 AM 24.8 °F 14.0 °F 23.0 °F 93% 29.42 in 9.0 mi SE 11.5 mph - 0.00 in   Mostly Cloudy
4:53 AM 24.1 °F 13.1 °F 23.0 °F 96% 29.42 in 9.0 mi SE 11.5 mph - 0.00 in   Mostly Cloudy
5:46 AM 24.8 °F 14.0 °F 23.0 °F 93% 29.44 in 10.0 mi SE 11.5 mph - N/A   Overcast
5:53 AM 24.1 °F 12.0 °F 23.0 °F 96% 29.45 in 10.0 mi SE 13.8 mph - N/A   Overcast
6:06 AM 24.8 °F 13.4 °F 23.0 °F 93% 29.45 in 10.0 mi SE 12.7 mph - N/A   Overcast
6:35 AM 24.8 °F 12.4 °F 24.8 °F 100% 29.46 in 10.0 mi SE 15.0 mph - N/A   Overcast
6:50 AM 24.8 °F 12.9 °F 24.8 °F 100% 29.47 in 4.0 mi SE 13.8 mph - 0.00 in Snow Light Snow
6:53 AM 25.0 °F 13.1 °F 24.1 °F 96% 29.47 in 3.0 mi SSE 13.8 mph - 0.00 in Snow Light Snow
7:19 AM 24.8 °F 14.0 °F 24.8 °F 100% 29.48 in 9.0 mi SSE 11.5 mph - 0.00 in   Overcast
7:53 AM 24.1 °F 13.7 °F 23.0 °F 96% 29.50 in 8.0 mi SE 10.4 mph - 0.00 in   Overcast
8:53 AM 25.0 °F 13.6 °F 23.0 °F 92% 29.52 in 10.0 mi SSE 12.7 mph - N/A   Overcast
9:53 AM 24.1 °F 12.5 °F 23.0 °F 96% 29.54 in 10.0 mi SSE 12.7 mph - N/A   Overcast
10:53 AM 24.1 °F 12.5 °F 23.0 °F 96% 29.57 in 10.0 mi SE 12.7 mph - N/A   Overcast
11:53 AM 23.0 °F 12.4 °F 21.0 °F 92% 29.60 in 10.0 mi SE 10.4 mph - N/A   Mostly Cloudy
12:53 PM 19.0 °F 8.2 °F 19.0 °F 100% 29.63 in 10.0 mi East 9.2 mph - N/A   Mostly Cloudy
1:53 PM 18.0 °F 6.9 °F 17.1 °F 96% 29.65 in 10.0 mi East 9.2 mph - N/A   Mostly Cloudy
2:53 PM 19.9 °F 7.9 °F 19.0 °F 96% 29.66 in 10.0 mi East 11.5 mph - N/A   Mostly Cloudy
3:53 PM 19.9 °F 9.3 °F 19.0 °F 96% 29.66 in 10.0 mi East 9.2 mph - N/A   Mostly Cloudy
4:53 PM 21.9 °F 14.5 °F 19.9 °F 92% 29.66 in 10.0 mi NNE 5.8 mph - N/A   Overcast
5:20 PM 21.2 °F 13.6 °F 19.4 °F 93% 29.65 in 10.0 mi NNE 5.8 mph - N/A   Overcast
5:53 PM 21.9 °F 12.5 °F 19.9 °F 92% 29.66 in 10.0 mi NE 8.1 mph - N/A   Overcast
6:06 PM 21.2 °F 12.6 °F 19.4 °F 93% 29.66 in 10.0 mi NNE 6.9 mph - N/A   Overcast
6:53 PM 23.0 °F 13.9 °F 21.0 °F 92% 29.66 in 10.0 mi NE 8.1 mph - N/A   Overcast
7:51 PM 26.6 °F 16.2 °F 23.0 °F 86% 29.66 in 10.0 mi ENE 11.5 mph - N/A   Scattered Clouds
7:53 PM 26.1 °F 15.0 °F 23.0 °F 88% 29.66 in 10.0 mi ENE 12.7 mph - N/A   Scattered Clouds
8:53 PM 26.1 °F 16.8 °F 21.9 °F 84% 29.65 in 10.0 mi NE 9.2 mph - N/A   Clear
9:53 PM 26.1 °F 15.6 °F 19.9 °F 78% 29.65 in 10.0 mi NE 11.5 mph - N/A   Clear
10:53 PM 26.1 °F 13.6 °F 21.0 °F 81% 29.62 in 10.0 mi NE 16.1 mph - N/A   Clear
11:53 PM 28.0 °F 17.5 °F 19.9 °F 72% 29.61 in 10.0 mi NE 12.7 mph - N/A   Mostly Cloudy